CGAS EGKK-EGPH

Flight info

Callsign CGAS
Flight time 0h 57m
Altitude 43000
Route LAM L10 BPK UN601 RIBEL DCT INPIP
Aircraft C700/M-SBDGHM1RWXY/LB2

Departure

Time 2026-04-23 20:53
Airport London Gatwick Airport (EGKK)

Arrival

Time 2026-04-23 21:50
Airport Edinburgh Airport (EGPH)
Time Latitude Longitude Altitude Speed Heading
2026-04-23 20:13 51.16155 -0.18331 172 ft 0 kts 258°
2026-04-23 20:39 51.16153 -0.18334 191 ft 1 kts 231°
2026-04-23 20:39 51.16139 -0.18322 209 ft 1 kts 133°
2026-04-23 20:39 51.16127 -0.18215 199 ft 16 kts 109°
2026-04-23 20:40 51.16040 -0.18140 212 ft 16 kts 171°
2026-04-23 20:40 51.15918 -0.18099 199 ft 19 kts 166°
2026-04-23 20:40 51.15774 -0.18069 199 ft 22 kts 192°
2026-04-23 20:40 51.15752 -0.18084 204 ft 0 kts 235°
2026-04-23 20:41 51.15752 -0.18085 204 ft 0 kts 235°
2026-04-23 20:41 51.15745 -0.18110 205 ft 11 kts 248°
2026-04-23 20:41 51.15671 -0.18199 203 ft 14 kts 227°
2026-04-23 20:41 51.15646 -0.18345 202 ft 15 kts 259°
2026-04-23 20:42 51.15623 -0.18528 199 ft 18 kts 256°
2026-04-23 20:42 51.15591 -0.18742 199 ft 21 kts 255°
2026-04-23 20:42 51.15502 -0.18811 199 ft 15 kts 168°
2026-04-23 20:42 51.15388 -0.18769 199 ft 18 kts 167°
2026-04-23 20:43 51.15257 -0.18723 199 ft 21 kts 167°
2026-04-23 20:43 51.15200 -0.18703 205 ft 0 kts 167°
2026-04-23 20:43 51.15178 -0.18696 199 ft 10 kts 169°
2026-04-23 20:43 51.15128 -0.18751 205 ft 11 kts 251°
2026-04-23 20:44 51.15096 -0.18982 203 ft 27 kts 257°
2026-04-23 20:44 51.15053 -0.19284 199 ft 29 kts 259°
2026-04-23 20:44 51.15010 -0.19607 204 ft 31 kts 257°
2026-04-23 20:44 51.14963 -0.19952 198 ft 33 kts 257°
2026-04-23 20:45 51.14913 -0.20317 203 ft 35 kts 258°
2026-04-23 20:45 51.14862 -0.20690 196 ft 34 kts 258°
2026-04-23 20:45 51.14826 -0.20945 207 ft 15 kts 256°
2026-04-23 20:45 51.14801 -0.21123 196 ft 18 kts 253°
2026-04-23 20:46 51.14765 -0.21263 204 ft 3 kts 201°
2026-04-23 20:46 51.14742 -0.21271 196 ft 0 kts 193°
2026-04-23 20:47 51.14728 -0.21276 206 ft 10 kts 193°
2026-04-23 20:47 51.14642 -0.21329 202 ft 11 kts 183°
2026-04-23 20:47 51.14639 -0.21329 195 ft 0 kts 180°
2026-04-23 20:49 51.14630 -0.21327 196 ft 5 kts 173°
2026-04-23 20:50 51.14544 -0.21268 204 ft 11 kts 131°
2026-04-23 20:50 51.14522 -0.21150 199 ft 12 kts 77°
2026-04-23 20:50 51.14531 -0.21063 200 ft 13 kts 78°
2026-04-23 20:50 51.14537 -0.21009 200 ft 0 kts 79°
2026-04-23 20:51 51.14539 -0.20998 200 ft 6 kts 79°
2026-04-23 20:51 51.14601 -0.20540 203 ft 88 kts 78°
2026-04-23 20:51 51.14784 -0.19120 227 ft 168 kts 78°
2026-04-23 20:52 51.15130 -0.17051 691 ft 220 kts 76°
2026-04-23 20:52 51.15353 -0.15411 772 ft 232 kts 79°
2026-04-23 20:52 51.15658 -0.12866 671 ft 239 kts 79°
2026-04-23 20:52 51.15991 -0.10256 723 ft 238 kts 77°
2026-04-23 20:53 51.16388 -0.07791 1313 ft 224 kts 74°
2026-04-23 20:53 51.17142 -0.05526 1308 ft 238 kts 55°
2026-04-23 20:53 51.18168 -0.03462 1553 ft 238 kts 54°
2026-04-23 20:53 51.19188 -0.01357 1744 ft 241 kts 56°
2026-04-23 20:54 51.20212 0.00783 1938 ft 244 kts 56°
2026-04-23 20:54 51.21227 0.02884 2220 ft 244 kts 56°
2026-04-23 20:54 51.22267 0.05035 2444 ft 245 kts 56°
2026-04-23 20:54 51.23308 0.07195 2661 ft 247 kts 56°
2026-04-23 20:55 51.24339 0.09390 2892 ft 247 kts 59°
2026-04-23 20:55 51.25070 0.11853 3102 ft 245 kts 73°
2026-04-23 20:55 51.25951 0.14174 3270 ft 253 kts 45°
2026-04-23 20:55 51.27593 0.15272 3420 ft 267 kts
2026-04-23 20:56 51.29460 0.15117 3627 ft 270 kts 357°
2026-04-23 20:56 51.31328 0.14863 3858 ft 269 kts
2026-04-23 20:56 51.33177 0.14439 3981 ft 274 kts 344°
2026-04-23 20:56 51.34872 0.13075 4159 ft 277 kts 332°
2026-04-23 20:57 51.36545 0.11534 4366 ft 278 kts 334°
2026-04-23 20:57 51.38304 0.10164 4579 ft 278 kts 338°
2026-04-23 20:57 51.40078 0.08928 4797 ft 279 kts 339°
2026-04-23 20:57 51.41849 0.07640 5029 ft 280 kts 337°
2026-04-23 20:58 51.43611 0.06308 5241 ft 281 kts 337°
2026-04-23 20:58 51.45382 0.04979 5445 ft 281 kts 337°
2026-04-23 20:58 51.47160 0.03660 5648 ft 282 kts 338°
2026-04-23 20:58 51.49010 0.02283 5852 ft 282 kts 337°
2026-04-23 20:59 51.50701 0.01021 6056 ft 282 kts 337°
2026-04-23 20:59 51.52481 -0.00310 6261 ft 282 kts 337°
2026-04-23 20:59 51.54262 -0.01642 6480 ft 283 kts 337°
2026-04-23 20:59 51.56045 -0.02975 6669 ft 283 kts 337°
2026-04-23 21:00 51.57834 -0.04315 6879 ft 283 kts 336°
2026-04-23 21:00 51.59619 -0.05653 7074 ft 283 kts 337°
2026-04-23 21:00 51.61410 -0.06996 7262 ft 283 kts 337°
2026-04-23 21:00 51.63194 -0.08335 7453 ft 283 kts 336°
2026-04-23 21:01 51.64980 -0.09679 7642 ft 283 kts 336°
2026-04-23 21:01 51.66764 -0.11020 7819 ft 283 kts 336°
2026-04-23 21:01 51.68551 -0.12365 8009 ft 283 kts 336°
2026-04-23 21:01 51.70337 -0.13710 8196 ft 283 kts 336°
2026-04-23 21:02 51.72119 -0.15055 8381 ft 283 kts 336°
2026-04-23 21:02 51.73909 -0.16405 8538 ft 285 kts 336°
2026-04-23 21:02 51.75718 -0.17771 8569 ft 290 kts 336°
2026-04-23 21:02 51.77545 -0.19154 8716 ft 290 kts 336°
2026-04-23 21:03 51.79370 -0.20536 8856 ft 290 kts 336°
2026-04-23 21:03 51.81188 -0.21913 9112 ft 285 kts 336°
2026-04-23 21:03 51.82929 -0.23233 9550 ft 273 kts 336°
2026-04-23 21:03 51.84660 -0.24547 9833 ft 271 kts 336°
2026-04-23 21:04 51.86366 -0.25841 10088 ft 277 kts 336°
2026-04-23 21:04 51.88246 -0.27264 10555 ft 328 kts 336°
2026-04-23 21:04 51.90433 -0.28927 11200 ft 354 kts 335°
2026-04-23 21:04 51.92725 -0.30680 11831 ft 360 kts 335°
2026-04-23 21:05 51.94901 -0.32342 12445 ft 332 kts 335°
2026-04-23 21:05 51.96914 -0.33879 13056 ft 313 kts 335°
2026-04-23 21:05 51.98984 -0.35456 13710 ft 344 kts 335°
2026-04-23 21:05 52.01235 -0.37175 14469 ft 372 kts 335°
2026-04-23 21:06 52.03654 -0.39031 15435 ft 396 kts 335°
2026-04-23 21:06 52.06150 -0.40946 16399 ft 406 kts 335°
2026-04-23 21:06 52.08755 -0.42996 17412 ft 415 kts 332°
2026-04-23 21:06 52.11221 -0.45379 18437 ft 421 kts 329°
2026-04-23 21:07 52.13741 -0.47847 19400 ft 423 kts 330°
2026-04-23 21:07 52.16253 -0.50271 20337 ft 419 kts 330°
2026-04-23 21:07 52.18770 -0.52690 21330 ft 422 kts 330°
2026-04-23 21:07 52.21304 -0.55155 22336 ft 425 kts 330°
2026-04-23 21:08 52.23848 -0.57643 23392 ft 427 kts 330°
2026-04-23 21:08 52.26403 -0.60132 24394 ft 428 kts 331°
2026-04-23 21:08 52.28966 -0.62625 25317 ft 429 kts 331°
2026-04-23 21:08 52.31528 -0.65127 26269 ft 429 kts 331°
2026-04-23 21:09 52.34050 -0.67597 27243 ft 428 kts 331°
2026-04-23 21:09 52.36591 -0.70087 28258 ft 425 kts 331°
2026-04-23 21:09 52.39122 -0.72568 29309 ft 422 kts 331°
2026-04-23 21:09 52.41632 -0.75032 30413 ft 419 kts 331°
2026-04-23 21:10 52.44118 -0.77477 31382 ft 414 kts 331°
2026-04-23 21:10 52.46574 -0.79896 32367 ft 409 kts 330°
2026-04-23 21:10 52.48992 -0.82280 33289 ft 405 kts 330°
2026-04-23 21:10 52.51409 -0.84664 34002 ft 405 kts 330°
2026-04-23 21:11 52.53823 -0.87051 34677 ft 405 kts 330°
2026-04-23 21:11 52.56236 -0.89440 35284 ft 404 kts 330°
2026-04-23 21:11 52.58612 -0.91795 35907 ft 403 kts 330°
2026-04-23 21:11 52.61012 -0.94176 36446 ft 403 kts 330°
2026-04-23 21:12 52.63413 -0.96561 36941 ft 404 kts 330°
2026-04-23 21:12 52.65826 -0.98962 37452 ft 405 kts 330°
2026-04-23 21:12 52.68235 -1.01363 37971 ft 404 kts 330°
2026-04-23 21:12 52.70634 -1.03757 38514 ft 403 kts 330°
2026-04-23 21:13 52.73028 -1.06146 39064 ft 401 kts 330°
2026-04-23 21:13 52.75404 -1.08523 39600 ft 398 kts 330°
2026-04-23 21:13 52.77758 -1.10881 40050 ft 394 kts 330°
2026-04-23 21:13 52.80066 -1.13194 40427 ft 393 kts 330°
2026-04-23 21:14 52.82403 -1.15540 40780 ft 393 kts 329°
2026-04-23 21:14 52.84737 -1.17886 41139 ft 392 kts 330°
2026-04-23 21:14 52.87067 -1.20232 41438 ft 392 kts 329°
2026-04-23 21:14 52.89400 -1.22582 41735 ft 393 kts 329°
2026-04-23 21:15 52.91728 -1.24931 42038 ft 393 kts 330°
2026-04-23 21:15 52.94061 -1.27288 42341 ft 392 kts 330°
2026-04-23 21:15 52.96391 -1.29646 42648 ft 392 kts 329°
2026-04-23 21:15 52.98685 -1.31971 42958 ft 391 kts 329°
2026-04-23 21:16 53.01006 -1.34322 43270 ft 390 kts 329°
2026-04-23 21:16 53.03318 -1.36670 43513 ft 391 kts 329°
2026-04-23 21:16 53.08048 -1.41485 43516 ft 405 kts 329°
2026-04-23 21:17 53.13040 -1.46155 43511 ft 418 kts 333°
2026-04-23 21:17 53.18235 -1.50796 43512 ft 430 kts 331°
2026-04-23 21:18 53.23492 -1.55702 43519 ft 441 kts 332°
2026-04-23 21:18 53.28946 -1.60658 43526 ft 451 kts 332°
2026-04-23 21:19 53.34490 -1.65812 43529 ft 461 kts 331°
2026-04-23 21:19 53.40161 -1.71036 43521 ft 469 kts 332°
2026-04-23 21:20 53.45881 -1.76358 43522 ft 478 kts 331°
2026-04-23 21:20 53.51732 -1.81801 43526 ft 483 kts 331°
2026-04-23 21:21 53.57607 -1.87291 43519 ft 482 kts 331°
2026-04-23 21:21 53.63464 -1.92779 43519 ft 481 kts 331°
2026-04-23 21:22 53.69269 -1.98235 43516 ft 482 kts 331°
2026-04-23 21:22 53.75127 -2.03762 43518 ft 483 kts 331°
2026-04-23 21:23 53.81008 -2.09325 43507 ft 484 kts 331°
2026-04-23 21:23 53.86875 -2.14895 43512 ft 482 kts 331°
2026-04-23 21:24 53.92722 -2.20463 43514 ft 481 kts 331°
2026-04-23 21:24 53.98516 -2.25998 43504 ft 481 kts 330°
2026-04-23 21:25 54.04520 -2.30986 43533 ft 480 kts 338°
2026-04-23 21:25 54.07632 -2.33101 42996 ft 481 kts 338°
2026-04-23 21:25 54.10704 -2.35231 42376 ft 472 kts 338°
2026-04-23 21:26 54.13707 -2.37332 41758 ft 461 kts 338°
2026-04-23 21:26 54.16649 -2.39376 41156 ft 451 kts 338°
2026-04-23 21:26 54.19531 -2.41366 40566 ft 442 kts 338°
2026-04-23 21:26 54.22350 -2.43325 39997 ft 434 kts 338°
2026-04-23 21:27 54.25129 -2.45268 39431 ft 430 kts 338°
2026-04-23 21:27 54.27858 -2.47175 38819 ft 429 kts 338°
2026-04-23 21:27 54.30624 -2.49105 38249 ft 432 kts 338°
2026-04-23 21:27 54.33435 -2.51073 37677 ft 441 kts 338°
2026-04-23 21:28 54.36293 -2.53078 37098 ft 445 kts 338°
2026-04-23 21:28 54.39148 -2.55083 36511 ft 443 kts 338°
2026-04-23 21:28 54.41985 -2.57078 35920 ft 441 kts 338°
2026-04-23 21:28 54.44815 -2.59070 35343 ft 439 kts 338°
2026-04-23 21:29 54.47645 -2.61066 34758 ft 439 kts 338°
2026-04-23 21:29 54.50444 -2.63044 34154 ft 442 kts 338°
2026-04-23 21:29 54.53296 -2.65062 33569 ft 444 kts 338°
2026-04-23 21:29 54.56157 -2.67089 32982 ft 447 kts 338°
2026-04-23 21:30 54.59040 -2.69135 32391 ft 449 kts 336°
2026-04-23 21:30 54.61933 -2.71198 31795 ft 450 kts 337°
2026-04-23 21:30 54.64833 -2.73256 31190 ft 452 kts 337°
2026-04-23 21:30 54.67746 -2.75328 30604 ft 453 kts 337°
2026-04-23 21:31 54.70656 -2.77409 29967 ft 451 kts 337°
2026-04-23 21:31 54.73533 -2.79469 29377 ft 445 kts 336°
2026-04-23 21:31 54.76363 -2.81495 28792 ft 447 kts 337°
2026-04-23 21:31 54.79237 -2.83555 28201 ft 446 kts 337°
2026-04-23 21:32 54.82080 -2.85596 27617 ft 441 kts 336°
2026-04-23 21:32 54.84905 -2.87630 27034 ft 437 kts 336°
2026-04-23 21:32 54.87703 -2.89651 26533 ft 441 kts 336°
2026-04-23 21:32 54.90596 -2.91738 26369 ft 458 kts 336°
2026-04-23 21:33 54.93498 -2.93833 25673 ft 443 kts 336°
2026-04-23 21:33 54.96297 -2.95854 25006 ft 428 kts 336°
2026-04-23 21:33 54.99019 -2.97829 24344 ft 421 kts 336°
2026-04-23 21:33 55.01685 -2.99771 23671 ft 421 kts 336°
2026-04-23 21:34 55.04383 -3.01734 23038 ft 421 kts 336°
2026-04-23 21:34 55.07091 -3.03703 22378 ft 420 kts 336°
2026-04-23 21:34 55.09770 -3.05654 21733 ft 416 kts 336°
2026-04-23 21:34 55.12422 -3.07592 21096 ft 408 kts 336°
2026-04-23 21:35 55.14982 -3.09464 20480 ft 390 kts 336°
2026-04-23 21:35 55.17436 -3.11260 19889 ft 375 kts 336°
2026-04-23 21:35 55.19802 -3.12995 19323 ft 363 kts 335°
2026-04-23 21:35 55.22095 -3.14681 18767 ft 353 kts 335°
2026-04-23 21:36 55.26461 -3.17892 17696 ft 333 kts 335°
2026-04-23 21:36 55.28590 -3.19371 17184 ft 326 kts 341°
2026-04-23 21:36 55.30814 -3.20078 16687 ft 325 kts 355°
2026-04-23 21:37 55.33073 -3.19942 16185 ft 325 kts
2026-04-23 21:37 55.35324 -3.19571 15698 ft 325 kts
2026-04-23 21:37 55.37566 -3.19225 15195 ft 322 kts
2026-04-23 21:37 55.39777 -3.18886 14701 ft 318 kts
2026-04-23 21:38 55.41966 -3.18584 14191 ft 313 kts 360°
2026-04-23 21:38 55.44025 -3.19379 13707 ft 306 kts 334°
2026-04-23 21:38 55.45809 -3.21361 13312 ft 302 kts 322°
2026-04-23 21:38 55.47476 -3.23628 12979 ft 304 kts 320°
2026-04-23 21:39 55.49127 -3.25966 12644 ft 305 kts 319°
2026-04-23 21:39 55.50775 -3.28320 12319 ft 304 kts 319°
2026-04-23 21:39 55.52415 -3.30670 12004 ft 303 kts 319°
2026-04-23 21:39 55.54045 -3.33008 11688 ft 301 kts 319°
2026-04-23 21:40 55.55666 -3.35337 11378 ft 300 kts 319°
2026-04-23 21:40 55.57286 -3.37659 11072 ft 300 kts 319°
2026-04-23 21:40 55.58890 -3.39955 10772 ft 301 kts 319°
2026-04-23 21:40 55.60515 -3.42282 10473 ft 300 kts 319°
2026-04-23 21:41 55.62137 -3.44607 10096 ft 302 kts 319°
2026-04-23 21:41 55.63789 -3.46982 9239 ft 309 kts 319°
2026-04-23 21:41 55.65465 -3.49402 8382 ft 312 kts 319°
2026-04-23 21:41 55.67137 -3.51832 7541 ft 296 kts 319°
2026-04-23 21:42 55.68686 -3.54086 6683 ft 301 kts 319°
2026-04-23 21:42 55.70289 -3.56444 5850 ft 305 kts 319°
2026-04-23 21:42 55.71903 -3.58847 5246 ft 299 kts 319°
2026-04-23 21:42 55.73450 -3.61171 4884 ft 285 kts 319°
2026-04-23 21:43 55.74929 -3.63393 4557 ft 273 kts 319°
2026-04-23 21:43 55.76321 -3.65480 4541 ft 252 kts 319°
2026-04-23 21:43 55.77634 -3.67445 4531 ft 245 kts 319°
2026-04-23 21:43 55.78947 -3.69408 4540 ft 248 kts 319°
2026-04-23 21:44 55.80273 -3.71391 4541 ft 250 kts 319°
2026-04-23 21:44 55.81589 -3.73365 4549 ft 251 kts 319°
2026-04-23 21:44 55.83013 -3.75127 4524 ft 251 kts 338°
2026-04-23 21:44 55.84721 -3.75421 4533 ft 249 kts 12°
2026-04-23 21:45 55.86232 -3.74036 4547 ft 246 kts 45°
2026-04-23 21:45 55.87064 -3.71451 4545 ft 242 kts 78°
2026-04-23 21:45 55.86957 -3.68530 4545 ft 238 kts 112°
2026-04-23 21:45 55.85962 -3.66249 4543 ft 236 kts 145°
2026-04-23 21:46 55.84603 -3.64685 4549 ft 235 kts 136°
2026-04-23 21:46 55.83869 -3.62156 4545 ft 228 kts 101°
2026-04-23 21:46 55.84094 -3.59528 4542 ft 216 kts 64°
2026-04-23 21:46 55.85149 -3.57728 4549 ft 214 kts 26°
2026-04-23 21:47 55.86504 -3.56631 4581 ft 213 kts 31°
2026-04-23 21:47 55.87711 -3.55330 4630 ft 180 kts 33°
2026-04-23 21:47 55.88708 -3.54257 4546 ft 162 kts 33°
2026-04-23 21:47 55.89541 -3.53033 4538 ft 152 kts 55°
2026-04-23 21:48 55.90155 -3.51472 4360 ft 157 kts 54°
2026-04-23 21:48 55.90752 -3.49882 3752 ft 153 kts 61°
2026-04-23 21:48 55.91317 -3.48328 3048 ft 148 kts 59°
2026-04-23 21:48 55.91831 -3.46812 2389 ft 138 kts 62°
2026-04-23 21:49 55.92269 -3.45338 1722 ft 129 kts 64°
2026-04-23 21:49 55.92696 -3.43978 1196 ft 124 kts 60°
2026-04-23 21:49 55.93154 -3.42679 869 ft 125 kts 59°
2026-04-23 21:49 55.93615 -3.41343 588 ft 123 kts 61°
2026-04-23 21:50 55.94031 -3.40125 321 ft 109 kts 62°
2026-04-23 21:50 55.94396 -3.39042 166 ft 98 kts 61°
2026-04-23 21:50 55.94724 -3.38069 111 ft 78 kts 62°
2026-04-23 21:50 55.94936 -3.37421 101 ft 48 kts 58°
2026-04-23 21:51 55.95090 -3.36973 104 ft 36 kts 57°
2026-04-23 21:51 55.95204 -3.36622 101 ft 30 kts 62°
2026-04-23 21:51 55.95244 -3.36409 96 ft 13 kts 129°
2026-04-23 21:51 55.95167 -3.36318 98 ft 13 kts 146°
2026-04-23 21:52 55.95125 -3.36170 98 ft 15 kts 108°
2026-04-23 21:52 55.95095 -3.35993 100 ft 16 kts 107°
2026-04-23 21:52 55.95046 -3.35845 100 ft 13 kts 139°
2026-04-23 21:52 55.94972 -3.35860 102 ft 10 kts 191°
2026-04-23 21:53 55.94915 -3.35806 102 ft 9 kts 114°
2026-04-23 21:53 55.94905 -3.35767 102 ft 6 kts 116°
2026-04-23 21:53 55.94893 -3.35728 102 ft 9 kts 117°
2026-04-23 21:53 55.94836 -3.35576 102 ft 14 kts 163°
2026-04-23 21:54 55.94794 -3.35587 101 ft 0 kts 212°